GIA7306 WIII-WMKK

Flight info

Callsign GIA7306
Flight time N/A
Altitude 38000
Route DOLTA2A DOLTA A585 PKU/N0485F370 N633 SALAX SALAX1G
Aircraft B77W/H-SDE1E2E3FGHIJ2J3J4J5M1RWXY/LB1D1

Departure

Time 2026-05-06 12:50
Airport Soekarno-Hatta International Airport (WIII)

Arrival

Time N/A
Airport Kuala Lumpur International Airport (WMKK)
Time Latitude Longitude Altitude Speed Heading
2026-05-06 12:03 -6.11844 106.66235 47 ft 0 kts 158°
2026-05-06 12:35 -6.11835 106.66231 48 ft 2 kts 158°
2026-05-06 12:35 -6.11818 106.66225 48 ft 3 kts 168°
2026-05-06 12:36 -6.11799 106.66223 48 ft 3 kts 186°
2026-05-06 12:36 -6.11779 106.66228 48 ft 3 kts 204°
2026-05-06 12:36 -6.11761 106.66239 48 ft 3 kts 221°
2026-05-06 12:36 -6.11747 106.66254 48 ft 3 kts 236°
2026-05-06 12:37 -6.11739 106.66269 48 ft 0 kts 247°
2026-05-06 12:39 -6.11741 106.66264 48 ft 2 kts 247°
2026-05-06 12:39 -6.11751 106.66238 48 ft 6 kts 251°
2026-05-06 12:39 -6.11762 106.66186 48 ft 9 kts 259°
2026-05-06 12:39 -6.11777 106.66132 48 ft 8 kts 251°
2026-05-06 12:40 -6.11796 106.66073 48 ft 10 kts 257°
2026-05-06 12:40 -6.11778 106.66024 48 ft 9 kts 317°
2026-05-06 12:40 -6.11731 106.65997 48 ft 7 kts 333°
2026-05-06 12:40 -6.11684 106.65975 48 ft 6 kts 338°
2026-05-06 12:41 -6.11633 106.65953 48 ft 10 kts 338°
2026-05-06 12:41 -6.11565 106.65924 48 ft 9 kts 336°
2026-05-06 12:41 -6.11517 106.65871 48 ft 13 kts 283°
2026-05-06 12:41 -6.11542 106.65774 48 ft 15 kts 250°
2026-05-06 12:42 -6.11593 106.65642 48 ft 23 kts 248°
2026-05-06 12:42 -6.11649 106.65503 48 ft 20 kts 248°
2026-05-06 12:42 -6.11694 106.65389 48 ft 17 kts 248°
2026-05-06 12:42 -6.11738 106.65280 48 ft 15 kts 248°
2026-05-06 12:43 -6.11774 106.65190 48 ft 13 kts 248°
2026-05-06 12:43 -6.11808 106.65105 48 ft 15 kts 248°
2026-05-06 12:43 -6.11855 106.64986 48 ft 21 kts 248°
2026-05-06 12:43 -6.11912 106.64839 48 ft 25 kts 249°
2026-05-06 12:44 -6.11967 106.64700 48 ft 16 kts 248°
2026-05-06 12:44 -6.12015 106.64580 48 ft 22 kts 248°
2026-05-06 12:44 -6.12074 106.64434 48 ft 21 kts 248°
2026-05-06 12:44 -6.12127 106.64301 48 ft 21 kts 248°
2026-05-06 12:45 -6.12168 106.64199 48 ft 10 kts 248°
2026-05-06 12:45 -6.12198 106.64124 48 ft 12 kts 248°
2026-05-06 12:45 -6.12240 106.64018 48 ft 4 kts 248°
2026-05-06 12:46 -6.12244 106.64008 48 ft 0 kts 248°
2026-05-06 12:46 -6.12247 106.64000 48 ft 1 kts 248°
2026-05-06 12:46 -6.12248 106.64000 48 ft 0 kts 248°
2026-05-06 12:46 -6.12256 106.63978 48 ft 10 kts 251°
2026-05-06 12:47 -6.12258 106.63923 48 ft 5 kts 313°
2026-05-06 12:47 -6.12249 106.63916 48 ft 0 kts 327°
2026-05-06 12:48 -6.12247 106.63915 48 ft 2 kts 327°
2026-05-06 12:48 -6.12201 106.63893 48 ft 11 kts 346°
2026-05-06 12:48 -6.12131 106.63906 48 ft 8 kts
2026-05-06 12:49 -6.12091 106.63923 48 ft 5 kts 45°
2026-05-06 12:49 -6.12072 106.63962 48 ft 5 kts 68°
2026-05-06 12:49 -6.12063 106.63983 48 ft 4 kts 68°
2026-05-06 12:49 -6.12018 106.64094 48 ft 35 kts 68°
2026-05-06 12:50 -6.11852 106.64513 48 ft 95 kts 68°
2026-05-06 12:50 -6.11537 106.65306 48 ft 148 kts 68°
2026-05-06 12:50 -6.11113 106.66367 301 ft 171 kts 68°
2026-05-06 12:50 -6.10660 106.67483 946 ft 175 kts 64°
2026-05-06 12:51 -6.09996 106.68533 1593 ft 179 kts 49°
2026-05-06 12:51 -6.09011 106.69315 2394 ft 183 kts 32°
2026-05-06 12:51 -6.07913 106.70008 3159 ft 190 kts 31°
2026-05-06 12:51 -6.06751 106.70744 3792 ft 207 kts 28°
2026-05-06 12:52 -6.05453 106.71521 4173 ft 230 kts 27°
2026-05-06 12:52 -6.03981 106.72377 4477 ft 261 kts 26°
2026-05-06 12:52 -6.02886 106.73007 4777 ft 276 kts 27°
2026-05-06 12:52 -6.00620 106.74176 5029 ft 271 kts 14°
2026-05-06 12:53 -5.98821 106.74269 5345 ft 259 kts 346°
2026-05-06 12:53 -5.97681 106.73836 5840 ft 262 kts 330°
2026-05-06 12:53 -5.96233 106.72763 6719 ft 266 kts 320°
2026-05-06 12:53 -5.95240 106.72005 7280 ft 269 kts 319°